SCP
0 0 0 0 0 0 0 0 0 0 0 0 0 0 0 0 0 0 0 0 0 0 0 0 0 0 0 0 0 0 0 0 0 0 0 0 0 0 0 0 0 0 0 0 0 -0 -0 0 -0 0 0 0 0 0
0 0 0 0 0 0 0 0 0 0 0 0 0 0 0 0 0 0 0 0 0 0 0 0 0 0 0 -0 0 0 0 0 0 0 0 0 0 0 0 0 0 0 0 0 0 0 0 -0 -0 0 0 0 0 -0
0 0 0 0 0 0 0 0 0 0 0 0 0 0 0 0 0 0 0 0 0 0 0 0 0 0 0 0 0 0 0 0 0 0 0 0 0 0 0 0 0 0 0 0 -0 0 -0 -0 0 -0 0 0 -0 -0
0 0 0 0 0 0 0 0 0 0 0 0 0 0 0 0 0 0 0 0 0 0 0 0 0 0 0 0 0 0 0 0 0 0 0 0 0 0 0 0 0 0 0 0 0 -0 -0 0 -0 0 -0 0 -0 -0
0 0 0 0 0 0 0 0 0 0 0 0 0 0 0 0 0 0 0 0 0 0 0 0 0 0 0 0 0 0 0 0 0 0 0 0 0 0 0 0 0 0 0 -0 -0 -0 -0 -0 -0 -0 -0 -0 -0 -0
0 0 0 0 0 0 0 0 0 0 0 0 0 0 0 0 0 0 0 0 0 0 0 0 0 0 0 0 0 0 0 0 0 0 0 0 0 0 0 0 0 -0 0 0 0 0 0 0 -0 -0 -0 -0 -0 0
0 0 0 0 0 0 0 0 0 0 0 0 0 0 0 0 0 0 0 0 0 0 0 0 0 0 0 0 0 0 0 0 0 0 0 0 0 0 0 0 0 -0 0 0 0 0 -0 -0 -0 -0 -0 -0 -0 0
0 0 0 0 0 0 0 0 0 0 0 0 0 0 0 0 0 0 0 0 0 0 0 0 0 0 0 0 0 0 0 0 0 0 0 0 0 0 0 0 -0 0 0 0 0 0 0 -0 -0 -0 -0 -0 -0 -0
0 0 0 0 0 0 0 0 0 0 0 0 0 0 0 0 0 0 0 0 0 0 0 0 0 0 0 0 0 0 0 0 0 0 0 0 0 0 0 -0 0 0 0 0 -0 0 -0 -0 -0 -0 -0 -0 -0 0
0 0 0 0 0 0 0 0 0 0 0 -0 0 0 0 0 0 0 0 0 0 0 0 0 0 0 0 0 0 0 0 0 0 0 0 0 0 0 0 0 0 0 0 0 -0 -0 -0 -0 -0 -0 -0 -0 -0 0
0 0 0 0 0 0 0 0 0 0 0 0 0 0 0 0 0 0 0 0 0 0 0 0 0 0 0 0 0 0 0 0 0 0 0 0 0 0 0 0 0 0 0 0 0 -0 -0 -0 -0 -0 -0 -0 -0 -0
0 0 0 0 0 0 0 0 0 0 0 0 0 0 0 0 0 0 0 0 0 0 0 0 0 0 0 0 0 0 0 0 -0 0 0 -0 0 -0 0 -0 0 0 0 0 -0 -0 -0 -0 -0 -0 -0 -0 -0 -0
0 0 0 0 0 0 0 0 0 0 0 0 0 0 0 0 0 0 0 0 0 0 0 0 0 0 0 0 0 0 -0 -0 -0 0 0 0 -0 -0 -0 -0 -0 0 0 0 -0 -0 -0 -0 -0 -0 -0 -0 -0 -0
0 0 0 0 0 0 0 0 0 0 0 0 0 0 0 0 0 0 0 0 0 0 0 0 0 0 0 0 0 0 0 -0 0 0 -0 -0 -0 -0 -0 -0 0 0 0 -0 -0 -0 -0 -0 0 -0 -0 -0 -0 0
0 0 0 0 0 0 0 0 0 0 0 0 0 0 0 0 0 0 0 0 0 0 0 0 0 0 0 0 0 0 0 0 0 0 0 -0 -0 -0 -0 -0 0 0 0 -0 -0 -0 0 0 0 -0 -0 -0 -0 0
0 0 0 0 0 0 0 0 0 0 0 0 0 0 0 0 0 0 0 0 0 0 0 0 0 0 0 0 0 0 0 0 -0 -0 0 -0 -0 -0 -0 -0 0 0 0 -0 -0 0 0 0 0 0 -0 -0 -0 -0
0 0 0 0 0 0 0 0 0 0 0 0 0 0 0 0 0 0 0 0 0 0 0 0 0 0 0 0 0 0 0 -0 -0 -0 0 -0 -0 -0 0 -0 0 0 0 -0 -0 0 0 0 0 -0 -0 -0 -0 -0
0 0 0 0 0 0 0 0 0 0 0 0 0 0 0 0 0 0 0 0 0 0 0 0 0 0 0 0 0 0 0 0 -0 0 -0 -0 -0 0 -0 -0 -0 -0 0 0 0 0 0 0 0 0 -0 0 -0 -0
0 0 0 0 0 0 0 0 0 0 0 0 0 0 0 0 0 0 0 0 0 0 0 0 0 0 0 0 0 0 0 0 -0 -0 -0 -0 -0 -0 -0 -0 -0 0 -0 0 0 0 -0 -0 0 0 0 -0 -0 -0
0 0 0 0 0 0 0 0 0 0 0 0 0 0 0 -0 0 0 0 0 0 0 0 0 0 0 0 0 0 0 0 0 0 0 -0 -0 -0 0 -0 -0 -0 0 0 0 0 0 0 -0 -0 0 0 0 -0 0
0 0 0 0 0 0 0 0 0 0 0 0 0 0 -0 -0 -0 0 0 0 0 0 0 0 0 0 -0 -0 0 0 0 0 0 -0 -0 0 -0 0 0 -0 0 0 0 0 0 0 0 0 -0 -0 -0 0 0 -0
0 0 0 0 0 0 0 0 0 0 0 0 0 0 0 0 0 0 0 0 -0 0 0 -0 -0 -0 -0 -0 0 -0 0 0 -0 -0 -0 0 0 0 0 0 0 0 0 0 0 0 0 0 -0 -0 -0 -0 -0 0
0 0 0 0 0 0 0 0 0 0 0 0 0 0 0 -0 -0 -0 0 -0 0 0 -0 -0 -0 -0 -0 0 0 -0 -0 -0 0 0 0 0 0 0 0 0 0 0 0 0 0 0 0 0 0 0 0 0 -0 -0
0 0 0 0 0 0 0 0 0 0 0 -0 -0 -0 -0 -0 -0 -0 -0 -0 0 -0 -0 -0 -0 -0 -0 0 -0 0 -0 -0 0 0 0 0 0 0 0 0 0 0 -0 0 0 0 0 0 0 0 0 0 0 0
0 0 0 0 0 0 0 0 0 -0 -0 -0 -0 0 -0 0 0 0 -0 0 -0 -0 -0 -0 -0 -0 0 0 0 0 0 0 0 0 0 0 0 0 0 0 -0 -0 -0 0 0 0 0 0 0 0 0 0 0 0
-0 -0 -0 0 0 0 0 0 -0 0 -0 0 -0 -0 0 -0 -0 -0 0 -0 -0 -0 0 -0 -0 0 -0 0 0 0 0 -0 0 0 0 0 0 0 0 0 0 -0 -0 -0 0 0 0 0 0 0 0 0 0 0
-0 -0 -0 0 -0 0 0 0 -0 0 -0 -0 0 0 0 0 0 0 -0 -0 -0 -0 -0 0 -0 -0 0 0 0 0 0 0 0 0 0 0 0 0 0 0 -0 -0 -0 0 0 -0 -0 -0 0 0 0 0 0 0
-0 -0 -0 -0 0 0 0 0 0 0 0 -0 0 0 0 -0 0 0 -0 0 -0 -0 -0 -0 -0 0 -0 0 0 0 0 -0 0 0 0 0 0 -0 0 0 0 0 -0 -0 -0 -0 -0 -0 0 0 0 0 0 0
-0 0 0 0 0 0 0 0 -0 0 0 0 0 0 0 0 0 0 0 0 0 0 0 0 0 -0 0 0 0 0 0 -0 0 0 0 0 0 -0 -0 0 -0 -0 -0 -0 -0 -0 -0 0 0 0 0 0 0 0
0 0 0 0 0 0 0 0 0 0 0 0 0 0 0 0 0 0 0 0 0 0 0 0 0 0 0 0 0 0 0 0 0 0 0 0 -0 0 -0 0 -0 -0 -0 -0 -0 -0 0 0 0 0 0 0 0 0
0 0 0 0 0 0 0 0 0 0 0 0 0 0 0 0 0 0 0 0 0 0 0 0 0 0 0 0 0 0 0 0 0 0 0 0 0 0 -0 0 -0 0 0 0 0 0 0 0 0 0 0 0 0 0
0 0 0 0 0 0 0 0 0 0 0 0 0 0 0 0 0 0 0 0 0 0 0 0 0 0 0 0 0 0 0 0 0 0 0 -0 -0 -0 -0 -0 0 0 0 0 0 0 0 0 0 0 0 0 0 0
0 0 0 0 0 0 0 0 0 0 0 0 0 0 0 0 0 0 0 -0 0 0 0 0 0 -0 0 0 0 0 0 0 0 0 0 -0 -0 -0 0 0 0 0 0 0 0 0 0 0 0 0 0 0 0 0
Wind_Speed_500mb
51 48 50 51 47 42 41 39 38 36 36 36 37 37 37 36 37 34 20 14 18 29 67 27 23 41 44 38 23 34 30 10 22 13 15 15 16 16 22 33 26 17 11 19 15 27 17 64 34 7 12 43 54 60
54 58 57 47 42 38 42 39 37 35 35 37 38 38 37 35 35 33 19 19 23 28 55 71 65 44 56 49 49 28 30 44 14 10 11 10 22 20 26 21 28 12 15 24 13 14 48 49 38 33 53 42 54 70
45 41 36 37 38 40 40 39 34 33 34 36 38 38 37 37 33 32 35 29 30 40 59 34 21 27 16 27 30 39 35 28 19 8 8 8 11 14 13 23 35 32 40 17 31 21 37 50 49 59 41 58 70 78
46 39 35 37 41 40 37 36 33 33 34 36 38 39 38 38 37 36 36 26 24 28 17 11 16 42 42 48 49 52 53 36 21 17 8 6 6 14 15 31 34 35 40 18 27 32 47 49 55 48 62 69 71 77
39 38 41 41 40 38 35 34 33 33 33 36 38 39 40 40 41 41 40 25 16 24 18 44 72 37 19 15 26 25 29 40 29 13 9 7 10 13 25 21 26 34 7 7 16 41 20 44 50 55 61 65 70 73
43 46 41 42 39 35 32 31 31 33 35 37 39 39 40 38 38 31 7 15 24 9 19 11 33 46 15 15 19 28 27 36 35 11 9 11 25 16 8 10 24 38 57 54 22 41 42 52 48 49 62 69 70 67
43 42 42 39 35 31 30 30 31 33 36 38 39 38 37 34 35 15 14 6 9 12 19 19 18 3 15 28 33 28 19 23 24 8 12 16 37 31 7 15 29 44 52 51 35 52 51 39 51 54 67 68 69 64
43 39 34 32 30 28 27 27 30 33 34 35 36 36 35 34 36 24 10 11 18 19 15 9 12 24 10 19 23 28 18 18 17 13 10 21 28 15 8 15 40 44 32 34 41 41 39 47 49 62 68 70 73 63
35 30 29 29 27 25 25 26 30 31 32 34 33 28 27 9 7 9 21 21 10 19 10 13 14 18 10 34 35 35 14 9 18 13 12 10 8 6 7 21 37 31 30 41 44 42 44 45 48 63 68 72 67 68
29 28 28 27 25 23 23 24 26 28 27 19 17 8 9 7 13 19 10 8 14 17 17 27 39 27 41 30 13 19 17 6 7 15 14 8 5 20 35 31 44 21 28 38 47 47 48 47 55 62 64 65 59 57
27 27 26 25 23 21 19 19 20 19 9 11 10 8 10 19 14 12 11 14 14 10 15 20 26 18 21 13 8 7 8 10 7 5 8 6 5 18 34 35 35 20 26 34 31 34 36 37 47 55 60 61 60 53
26 26 25 24 21 18 16 16 13 7 13 17 22 28 19 8 10 9 7 11 11 8 9 18 21 31 18 6 5 5 6 8 12 3 8 4 7 30 30 30 36 18 29 34 32 33 33 40 44 49 50 55 54 50
26 25 23 21 20 18 15 12 10 15 12 6 6 5 8 10 7 12 17 14 8 8 9 12 16 12 11 8 5 6 8 11 19 8 2 2 18 28 25 26 33 24 33 33 31 31 30 38 44 49 44 48 46 50
23 22 21 20 18 15 14 11 7 8 4 8 9 8 11 13 14 17 19 14 7 16 19 20 20 10 22 10 10 9 13 9 1 4 2 5 16 26 28 26 28 30 34 32 30 30 30 38 44 50 43 40 41 48
27 28 28 27 22 19 17 12 8 5 5 9 11 10 16 30 33 27 20 12 9 16 18 20 22 27 21 14 9 9 9 3 6 2 11 20 23 24 23 27 28 28 31 29 29 29 28 34 38 41 53 40 42 40
23 22 21 20 23 23 19 15 14 14 8 11 17 21 29 31 35 28 24 30 21 15 20 14 17 11 12 9 12 9 11 7 5 5 11 18 26 28 26 22 24 23 26 25 25 26 26 31 34 38 33 49 45 40
22 11 17 12 13 20 18 15 17 14 13 12 17 32 37 40 43 44 29 30 17 22 11 7 10 8 9 11 22 10 11 11 14 7 8 15 25 28 27 21 23 21 21 25 22 22 25 25 26 30 36 33 46 39
16 24 17 11 14 11 17 20 11 13 16 28 36 41 43 44 46 44 39 37 33 28 23 21 31 28 23 32 26 27 40 36 20 9 9 12 22 24 29 16 19 21 15 19 21 21 23 24 23 28 33 31 37 42
18 24 19 18 20 15 9 13 17 13 24 39 45 46 43 45 45 45 44 41 38 34 31 20 12 13 19 32 29 35 36 33 22 7 11 11 19 19 21 18 16 17 16 8 13 18 19 21 25 20 26 37 32 29
24 9 12 14 26 10 8 11 16 15 19 32 35 39 37 37 40 41 43 44 41 37 34 26 27 41 45 47 37 36 34 27 34 16 13 13 18 17 16 13 15 19 20 6 4 14 18 18 17 19 22 34 32 30
14 13 11 13 18 16 10 12 15 21 26 34 39 40 33 34 36 37 40 42 42 41 36 46 50 48 44 49 49 41 41 36 32 14 16 18 18 19 21 13 12 14 17 18 5 11 19 19 14 13 15 19 25 24
15 14 15 22 14 10 15 23 18 19 18 32 42 41 35 35 39 43 43 42 44 51 55 53 51 47 49 51 47 38 41 40 37 34 36 34 30 26 16 12 12 14 8 16 11 11 16 16 14 15 15 13 21 22
11 13 11 14 14 12 17 20 19 17 11 16 28 15 17 27 38 39 29 39 50 52 51 45 45 46 47 43 39 40 40 41 37 34 31 30 29 26 24 23 15 12 11 8 6 13 11 9 13 12 21 17 17 12
18 11 9 11 22 12 18 14 14 14 23 30 23 32 33 43 45 43 28 46 52 46 43 40 42 43 38 37 40 41 35 33 36 34 29 27 25 23 21 20 20 16 21 8 7 5 7 9 4 3 6 9 12 15
12 14 11 17 16 14 13 24 33 24 31 28 33 27 24 45 24 31 32 45 42 36 22 1 3 4 11 20 28 30 24 32 34 29 27 26 27 22 15 19 30 21 15 15 16 12 6 3 5 8 6 1 7 10
13 22 22 17 19 14 12 20 20 29 26 33 20 31 37 17 23 18 17 12 3 12 16 18 14 23 29 28 32 39 36 30 28 28 25 28 28 24 21 22 17 19 19 19 17 18 15 12 8 6 4 1 3 3
11 16 27 30 33 22 14 27 37 25 29 35 21 22 11 8 12 11 4 6 4 5 19 36 40 43 48 42 34 37 27 29 29 31 24 26 28 26 26 21 23 16 15 13 13 13 18 14 12 11 10 5 3 4
21 19 23 30 29 25 29 22 12 14 11 13 13 3 4 7 6 11 20 46 48 77 68 49 39 44 45 38 32 30 19 24 30 26 20 21 15 14 32 21 20 14 17 14 10 9 9 13 10 8 9 10 8 7
24 24 25 30 28 14 14 13 13 16 16 7 5 6 9 16 30 54 84 82 56 53 43 25 24 32 34 28 26 26 27 28 32 32 30 26 28 34 30 25 25 18 17 13 15 9 9 11 7 4 3 5 7 7
27 25 14 13 9 9 16 19 23 27 28 34 35 38 49 63 81 65 45 45 21 8 12 16 16 25 24 22 19 22 29 25 29 27 32 35 34 24 22 29 19 19 16 16 9 13 13 11 7 7 7 5 4 6
10 9 8 9 10 27 36 35 39 43 46 50 45 48 60 41 28 43 55 38 4 9 15 17 17 16 13 18 20 27 26 19 22 12 5 25 27 29 30 22 17 14 14 8 7 12 7 3 9 12 9 9 8 7
14 20 13 9 9 15 9 9 6 7 8 7 9 9 4 3 16 31 56 51 51 44 38 31 34 25 30 36 31 33 35 24 29 21 17 23 21 14 21 16 13 12 11 8 5 2 1 6 7 11 12 10 5 5
14 17 20 10 10 9 15 12 9 7 2 15 20 25 20 10 13 41 36 41 45 42 33 28 25 29 28 31 35 36 34 29 22 17 13 14 21 20 18 14 12 11 9 7 7 6 7 11 10 9 10 14 13 12
Wind_Direction_500mb
276 277 280 287 282 284 285 291 301 310 318 323 325 329 331 331 333 337 328 310 290 287 291 289 309 302 296 289 290 308 332 45 303 306 303 318 315 314 325 307 304 301 291 299 309 297 284 350 344 327 287 311 315 317
272 273 271 272 273 273 279 287 292 304 314 320 320 323 326 327 326 328 318 300 300 282 276 293 302 288 265 265 267 267 278 307 289 308 329 324 310 301 303 299 305 295 304 299 280 275 296 313 342 345 335 325 322 320
272 267 263 266 262 272 278 283 291 301 310 313 317 319 321 320 321 319 311 308 307 295 301 304 321 0 231 242 247 260 274 293 272 290 330 316 279 329 291 293 299 302 311 302 307 294 310 323 336 337 328 329 323 320
264 258 259 262 268 271 274 280 288 296 304 309 311 313 316 316 316 313 310 299 292 296 294 296 295 301 284 260 270 273 254 258 265 266 238 244 260 264 274 291 289 289 292 285 278 305 321 315 332 334 332 328 324 328
250 253 259 262 264 267 272 278 284 293 300 305 308 312 312 312 313 314 312 284 272 258 294 299 301 312 297 261 262 274 268 245 240 225 226 252 251 278 270 280 269 277 316 317 302 318 305 299 328 335 329 327 328 327
255 259 263 263 260 263 267 273 282 292 299 304 307 309 310 310 312 338 14 192 212 257 301 307 299 299 291 276 255 258 249 227 226 203 243 242 250 268 262 266 289 322 333 315 287 298 315 327 330 332 332 335 337 331
252 259 258 255 255 258 265 274 284 294 301 305 308 308 306 303 297 272 279 278 243 299 294 301 293 212 260 280 276 279 266 213 233 221 227 245 261 255 245 268 285 309 292 288 320 334 329 343 337 333 341 343 345 339
259 252 245 246 250 255 265 277 287 295 303 307 307 304 299 291 290 297 290 280 264 258 248 269 272 286 310 317 318 316 273 201 215 231 237 252 278 217 248 275 333 290 319 331 336 333 336 335 334 338 350 352 346 343
242 236 236 240 246 255 268 280 289 301 309 308 304 302 288 300 263 243 269 283 214 224 268 241 262 304 317 324 328 308 300 229 220 207 221 245 231 232 333 309 312 345 348 335 334 339 340 342 340 348 355 356 347 348
229 226 231 238 245 256 269 282 298 311 323 327 317 259 212 189 251 295 279 220 211 218 236 264 276 279 295 319 318 320 290 269 250 218 220 201 120 336 342 335 308 348 345 343 342 347 346 349 346 354 356 354 351 355
222 224 229 236 244 254 267 282 305 330 24 328 294 327 327 315 310 249 218 218 201 228 223 254 258 290 290 275 273 291 318 282 275 175 201 45 316 334 335 326 322 355 353 350 345 344 347 348 356 356 360 0 3 6
218 223 229 235 241 249 261 280 296 326 300 284 291 295 301 263 247 267 242 246 209 248 201 241 256 245 268 275 273 282 267 295 258 315 48 328 311 319 324 330 327 8 358 357 351 354 357 360 9 1 6 7 13 17
220 224 228 233 238 244 249 259 287 314 316 296 271 252 232 221 239 228 218 215 214 230 216 245 266 280 222 220 182 245 248 245 285 28 123 255 317 323 328 329 331 9 359 0 357 2 4 12 19 10 8 14 22 30
219 222 226 231 233 226 222 233 281 326 320 256 232 245 232 208 219 212 240 295 179 224 253 267 294 281 294 225 228 243 222 263 67 95 250 13 335 323 318 330 353 356 1 1 2 4 9 18 24 15 17 16 29 43
223 226 228 228 228 227 225 236 257 258 257 254 248 240 232 250 278 271 287 261 242 262 262 288 289 279 265 260 255 275 265 296 24 40 50 23 346 344 332 337 358 360 1 2 2 4 9 13 26 20 23 29 39 55
218 227 236 232 225 225 223 233 245 220 231 236 237 255 279 307 288 289 318 303 271 240 273 271 261 260 266 229 229 241 303 339 345 272 19 1 353 338 330 343 2 3 5 4 4 4 6 10 16 31 20 31 37 53
201 209 231 211 214 218 214 214 243 217 232 230 244 252 269 276 277 283 292 287 271 244 255 275 276 257 291 260 265 308 314 30 326 339 24 348 342 332 330 345 358 8 12 9 359 8 10 13 15 32 36 25 34 51
199 221 230 222 188 202 214 209 239 239 239 249 262 269 272 276 279 277 276 272 279 271 261 258 269 271 269 282 292 301 314 316 326 337 333 333 339 333 332 354 353 359 15 13 12 13 17 22 23 29 37 32 34 44
220 227 221 206 195 213 217 219 222 259 252 263 268 272 274 278 272 267 269 274 271 268 264 259 250 252 259 264 279 304 312 326 340 347 315 320 342 336 328 344 347 335 338 353 13 29 30 18 32 29 38 42 46 36
222 214 183 201 201 209 244 244 217 252 270 275 280 277 272 270 271 272 269 263 258 253 245 248 255 258 272 279 286 284 292 305 308 325 328 333 330 333 335 328 324 317 324 284 17 40 31 35 25 40 37 37 42 47
205 222 207 196 197 224 259 265 246 257 278 276 272 274 270 269 272 269 262 259 257 249 246 248 246 252 256 264 274 284 287 287 294 298 303 300 319 322 312 304 286 297 325 345 293 46 41 40 42 30 50 47 54 51
218 217 229 199 215 241 249 238 246 270 279 271 279 276 270 267 267 267 263 259 259 253 250 252 257 258 253 249 249 255 261 268 269 269 274 275 282 289 290 278 260 297 310 317 4 46 64 58 48 44 59 63 43 52
184 187 206 212 221 239 257 239 241 241 245 277 290 276 265 272 276 273 264 256 257 257 256 258 259 256 254 259 262 257 257 260 269 263 259 255 258 265 259 256 239 242 238 266 17 80 63 74 98 68 51 64 67 57
213 199 221 223 211 249 242 215 223 255 269 261 267 275 276 280 280 274 269 267 265 266 264 255 253 256 251 239 248 252 249 240 246 248 245 243 248 240 234 232 237 234 245 227 157 73 34 102 341 70 106 84 75 67
194 218 206 233 230 235 244 244 238 242 254 263 264 269 273 277 272 269 269 269 273 280 281 145 125 256 282 270 271 260 258 236 234 230 231 227 230 236 205 207 244 232 224 186 171 155 138 95 75 23 28 61 116 105
216 210 204 218 219 224 226 264 265 266 265 264 260 267 278 280 273 273 266 336 29 39 61 38 318 303 266 263 269 250 253 229 213 221 220 211 213 219 218 204 222 223 214 202 184 177 174 173 175 193 207 114 1 207
237 235 211 232 242 236 253 260 277 280 282 282 273 279 291 282 259 240 341 11 344 305 304 306 290 278 269 263 256 253 256 226 195 204 201 203 210 209 227 203 191 206 196 182 190 193 189 191 200 207 224 248 234 345
237 266 262 260 254 255 254 263 274 277 287 322 338 300 254 254 280 317 300 301 295 297 297 291 268 251 248 227 229 248 214 178 181 196 206 206 198 233 217 176 213 170 154 155 168 184 189 198 201 217 227 237 250 243
237 251 266 263 258 221 223 226 240 240 254 288 254 237 240 247 271 284 290 300 302 299 295 277 234 211 199 212 234 248 192 176 183 193 206 201 199 197 213 180 179 168 170 161 198 202 133 145 152 148 205 226 244 266
253 245 251 265 251 248 246 240 260 266 261 252 258 264 268 275 288 305 320 337 324 248 174 154 171 184 194 207 214 162 170 188 199 203 196 190 195 187 173 170 155 166 165 163 171 173 185 204 235 235 254 282 265 257
244 217 249 238 261 264 262 263 263 269 271 269 268 258 270 287 319 16 25 31 115 112 150 177 178 188 187 177 188 166 160 184 195 178 64 192 237 171 164 158 162 153 152 151 146 170 172 154 234 243 238 217 240 262
208 204 197 216 254 274 246 220 246 266 288 289 311 352 327 354 10 16 32 46 57 61 64 76 86 101 111 104 102 116 132 123 125 123 139 132 125 125 128 135 137 140 143 149 156 220 274 295 268 197 193 209 235 245
207 212 221 240 217 221 215 209 223 255 162 51 48 54 53 46 27 10 33 44 47 55 70 68 90 99 101 99 101 104 114 119 125 133 138 138 140 130 123 130 136 134 139 138 122 111 113 106 86 146 175 196 196 189
Wind_Speed_850mb
51 48 50 51 47 42 41 39 38 36 36 36 37 37 37 36 37 34 20 14 18 29 67 27 23 41 44 38 23 34 30 10 22 13 15 15 16 16 22 33 26 17 11 19 15 27 17 64 34 7 12 43 54 60
54 58 57 47 42 38 42 39 37 35 35 37 38 38 37 35 35 33 19 19 23 28 55 71 65 44 56 49 49 28 30 44 14 10 11 10 22 20 26 21 28 12 15 24 13 14 48 49 38 33 53 42 54 70
45 41 36 37 38 40 40 39 34 33 34 36 38 38 37 37 33 32 35 29 30 40 59 34 21 27 16 27 30 39 35 28 19 8 8 8 11 14 13 23 35 32 40 17 31 21 37 50 49 59 41 58 70 78
46 39 35 37 41 40 37 36 33 33 34 36 38 39 38 38 37 36 36 26 24 28 17 11 16 42 42 48 49 52 53 36 21 17 8 6 6 14 15 31 34 35 40 18 27 32 47 49 55 48 62 69 71 77
39 38 41 41 40 38 35 34 33 33 33 36 38 39 40 40 41 41 40 25 16 24 18 44 72 37 19 15 26 25 29 40 29 13 9 7 10 13 25 21 26 34 7 7 16 41 20 44 50 55 61 65 70 73
43 46 41 42 39 35 32 31 31 33 35 37 39 39 40 38 38 31 7 15 24 9 19 11 33 46 15 15 19 28 27 36 35 11 9 11 25 16 8 10 24 38 57 54 22 41 42 52 48 49 62 69 70 67
43 42 42 39 35 31 30 30 31 33 36 38 39 38 37 34 35 15 14 6 9 12 19 19 18 3 15 28 33 28 19 23 24 8 12 16 37 31 7 15 29 44 52 51 35 52 51 39 51 54 67 68 69 64
43 39 34 32 30 28 27 27 30 33 34 35 36 36 35 34 36 24 10 11 18 19 15 9 12 24 10 19 23 28 18 18 17 13 10 21 28 15 8 15 40 44 32 34 41 41 39 47 49 62 68 70 73 63
35 30 29 29 27 25 25 26 30 31 32 34 33 28 27 9 7 9 21 21 10 19 10 13 14 18 10 34 35 35 14 9 18 13 12 10 8 6 7 21 37 31 30 41 44 42 44 45 48 63 68 72 67 68
29 28 28 27 25 23 23 24 26 28 27 19 17 8 9 7 13 19 10 8 14 17 17 27 39 27 41 30 13 19 17 6 7 15 14 8 5 20 35 31 44 21 28 38 47 47 48 47 55 62 64 65 59 57
27 27 26 25 23 21 19 19 20 19 9 11 10 8 10 19 14 12 11 14 14 10 15 20 26 18 21 13 8 7 8 10 7 5 8 6 5 18 34 35 35 20 26 34 31 34 36 37 47 55 60 61 60 53
26 26 25 24 21 18 16 16 13 7 13 17 22 28 19 8 10 9 7 11 11 8 9 18 21 31 18 6 5 5 6 8 12 3 8 4 7 30 30 30 36 18 29 34 32 33 33 40 44 49 50 55 54 50
26 25 23 21 20 18 15 12 10 15 12 6 6 5 8 10 7 12 17 14 8 8 9 12 16 12 11 8 5 6 8 11 19 8 2 2 18 28 25 26 33 24 33 33 31 31 30 38 44 49 44 48 46 50
23 22 21 20 18 15 14 11 7 8 4 8 9 8 11 13 14 17 19 14 7 16 19 20 20 10 22 10 10 9 13 9 1 4 2 5 16 26 28 26 28 30 34 32 30 30 30 38 44 50 43 40 41 48
27 28 28 27 22 19 17 12 8 5 5 9 11 10 16 30 33 27 20 12 9 16 18 20 22 27 21 14 9 9 9 3 6 2 11 20 23 24 23 27 28 28 31 29 29 29 28 34 38 41 53 40 42 40
23 22 21 20 23 23 19 15 14 14 8 11 17 21 29 31 35 28 24 30 21 15 20 14 17 11 12 9 12 9 11 7 5 5 11 18 26 28 26 22 24 23 26 25 25 26 26 31 34 38 33 49 45 40
22 11 17 12 13 20 18 15 17 14 13 12 17 32 37 40 43 44 29 30 17 22 11 7 10 8 9 11 22 10 11 11 14 7 8 15 25 28 27 21 23 21 21 25 22 22 25 25 26 30 36 33 46 39
16 24 17 11 14 11 17 20 11 13 16 28 36 41 43 44 46 44 39 37 33 28 23 21 31 28 23 32 26 27 40 36 20 9 9 12 22 24 29 16 19 21 15 19 21 21 23 24 23 28 33 31 37 42
18 24 19 18 20 15 9 13 17 13 24 39 45 46 43 45 45 45 44 41 38 34 31 20 12 13 19 32 29 35 36 33 22 7 11 11 19 19 21 18 16 17 16 8 13 18 19 21 25 20 26 37 32 29
24 9 12 14 26 10 8 11 16 15 19 32 35 39 37 37 40 41 43 44 41 37 34 26 27 41 45 47 37 36 34 27 34 16 13 13 18 17 16 13 15 19 20 6 4 14 18 18 17 19 22 34 32 30
14 13 11 13 18 16 10 12 15 21 26 34 39 40 33 34 36 37 40 42 42 41 36 46 50 48 44 49 49 41 41 36 32 14 16 18 18 19 21 13 12 14 17 18 5 11 19 19 14 13 15 19 25 24
15 14 15 22 14 10 15 23 18 19 18 32 42 41 35 35 39 43 43 42 44 51 55 53 51 47 49 51 47 38 41 40 37 34 36 34 30 26 16 12 12 14 8 16 11 11 16 16 14 15 15 13 21 22
11 13 11 14 14 12 17 20 19 17 11 16 28 15 17 27 38 39 29 39 50 52 51 45 45 46 47 43 39 40 40 41 37 34 31 30 29 26 24 23 15 12 11 8 6 13 11 9 13 12 21 17 17 12
18 11 9 11 22 12 18 14 14 14 23 30 23 32 33 43 45 43 28 46 52 46 43 40 42 43 38 37 40 41 35 33 36 34 29 27 25 23 21 20 20 16 21 8 7 5 7 9 4 3 6 9 12 15
12 14 11 17 16 14 13 24 33 24 31 28 33 27 24 45 24 31 32 45 42 36 22 1 3 4 11 20 28 30 24 32 34 29 27 26 27 22 15 19 30 21 15 15 16 12 6 3 5 8 6 1 7 10
13 22 22 17 19 14 12 20 20 29 26 33 20 31 37 17 23 18 17 12 3 12 16 18 14 23 29 28 32 39 36 30 28 28 25 28 28 24 21 22 17 19 19 19 17 18 15 12 8 6 4 1 3 3
11 16 27 30 33 22 14 27 37 25 29 35 21 22 11 8 12 11 4 6 4 5 19 36 40 43 48 42 34 37 27 29 29 31 24 26 28 26 26 21 23 16 15 13 13 13 18 14 12 11 10 5 3 4
21 19 23 30 29 25 29 22 12 14 11 13 13 3 4 7 6 11 20 46 48 77 68 49 39 44 45 38 32 30 19 24 30 26 20 21 15 14 32 21 20 14 17 14 10 9 9 13 10 8 9 10 8 7
24 24 25 30 28 14 14 13 13 16 16 7 5 6 9 16 30 54 84 82 56 53 43 25 24 32 34 28 26 26 27 28 32 32 30 26 28 34 30 25 25 18 17 13 15 9 9 11 7 4 3 5 7 7
27 25 14 13 9 9 16 19 23 27 28 34 35 38 49 63 81 65 45 45 21 8 12 16 16 25 24 22 19 22 29 25 29 27 32 35 34 24 22 29 19 19 16 16 9 13 13 11 7 7 7 5 4 6
10 9 8 9 10 27 36 35 39 43 46 50 45 48 60 41 28 43 55 38 4 9 15 17 17 16 13 18 20 27 26 19 22 12 5 25 27 29 30 22 17 14 14 8 7 12 7 3 9 12 9 9 8 7
14 20 13 9 9 15 9 9 6 7 8 7 9 9 4 3 16 31 56 51 51 44 38 31 34 25 30 36 31 33 35 24 29 21 17 23 21 14 21 16 13 12 11 8 5 2 1 6 7 11 12 10 5 5
14 17 20 10 10 9 15 12 9 7 2 15 20 25 20 10 13 41 36 41 45 42 33 28 25 29 28 31 35 36 34 29 22 17 13 14 21 20 18 14 12 11 9 7 7 6 7 11 10 9 10 14 13 12
Wind_Direction_850mb
276 277 280 287 282 284 285 291 301 310 318 323 325 329 331 331 333 337 328 310 290 287 291 289 309 302 296 289 290 308 332 45 303 306 303 318 315 314 325 307 304 301 291 299 309 297 284 350 344 327 287 311 315 317
272 273 271 272 273 273 279 287 292 304 314 320 320 323 326 327 326 328 318 300 300 282 276 293 302 288 265 265 267 267 278 307 289 308 329 324 310 301 303 299 305 295 304 299 280 275 296 313 342 345 335 325 322 320
272 267 263 266 262 272 278 283 291 301 310 313 317 319 321 320 321 319 311 308 307 295 301 304 321 0 231 242 247 260 274 293 272 290 330 316 279 329 291 293 299 302 311 302 307 294 310 323 336 337 328 329 323 320
264 258 259 262 268 271 274 280 288 296 304 309 311 313 316 316 316 313 310 299 292 296 294 296 295 301 284 260 270 273 254 258 265 266 238 244 260 264 274 291 289 289 292 285 278 305 321 315 332 334 332 328 324 328
250 253 259 262 264 267 272 278 284 293 300 305 308 312 312 312 313 314 312 284 272 258 294 299 301 312 297 261 262 274 268 245 240 225 226 252 251 278 270 280 269 277 316 317 302 318 305 299 328 335 329 327 328 327
255 259 263 263 260 263 267 273 282 292 299 304 307 309 310 310 312 338 14 192 212 257 301 307 299 299 291 276 255 258 249 227 226 203 243 242 250 268 262 266 289 322 333 315 287 298 315 327 330 332 332 335 337 331
252 259 258 255 255 258 265 274 284 294 301 305 308 308 306 303 297 272 279 278 243 299 294 301 293 212 260 280 276 279 266 213 233 221 227 245 261 255 245 268 285 309 292 288 320 334 329 343 337 333 341 343 345 339
259 252 245 246 250 255 265 277 287 295 303 307 307 304 299 291 290 297 290 280 264 258 248 269 272 286 310 317 318 316 273 201 215 231 237 252 278 217 248 275 333 290 319 331 336 333 336 335 334 338 350 352 346 343
242 236 236 240 246 255 268 280 289 301 309 308 304 302 288 300 263 243 269 283 214 224 268 241 262 304 317 324 328 308 300 229 220 207 221 245 231 232 333 309 312 345 348 335 334 339 340 342 340 348 355 356 347 348
229 226 231 238 245 256 269 282 298 311 323 327 317 259 212 189 251 295 279 220 211 218 236 264 276 279 295 319 318 320 290 269 250 218 220 201 120 336 342 335 308 348 345 343 342 347 346 349 346 354 356 354 351 355
222 224 229 236 244 254 267 282 305 330 24 328 294 327 327 315 310 249 218 218 201 228 223 254 258 290 290 275 273 291 318 282 275 175 201 45 316 334 335 326 322 355 353 350 345 344 347 348 356 356 360 0 3 6
218 223 229 235 241 249 261 280 296 326 300 284 291 295 301 263 247 267 242 246 209 248 201 241 256 245 268 275 273 282 267 295 258 315 48 328 311 319 324 330 327 8 358 357 351 354 357 360 9 1 6 7 13 17
220 224 228 233 238 244 249 259 287 314 316 296 271 252 232 221 239 228 218 215 214 230 216 245 266 280 222 220 182 245 248 245 285 28 123 255 317 323 328 329 331 9 359 0 357 2 4 12 19 10 8 14 22 30
219 222 226 231 233 226 222 233 281 326 320 256 232 245 232 208 219 212 240 295 179 224 253 267 294 281 294 225 228 243 222 263 67 95 250 13 335 323 318 330 353 356 1 1 2 4 9 18 24 15 17 16 29 43
223 226 228 228 228 227 225 236 257 258 257 254 248 240 232 250 278 271 287 261 242 262 262 288 289 279 265 260 255 275 265 296 24 40 50 23 346 344 332 337 358 360 1 2 2 4 9 13 26 20 23 29 39 55
218 227 236 232 225 225 223 233 245 220 231 236 237 255 279 307 288 289 318 303 271 240 273 271 261 260 266 229 229 241 303 339 345 272 19 1 353 338 330 343 2 3 5 4 4 4 6 10 16 31 20 31 37 53
201 209 231 211 214 218 214 214 243 217 232 230 244 252 269 276 277 283 292 287 271 244 255 275 276 257 291 260 265 308 314 30 326 339 24 348 342 332 330 345 358 8 12 9 359 8 10 13 15 32 36 25 34 51
199 221 230 222 188 202 214 209 239 239 239 249 262 269 272 276 279 277 276 272 279 271 261 258 269 271 269 282 292 301 314 316 326 337 333 333 339 333 332 354 353 359 15 13 12 13 17 22 23 29 37 32 34 44
220 227 221 206 195 213 217 219 222 259 252 263 268 272 274 278 272 267 269 274 271 268 264 259 250 252 259 264 279 304 312 326 340 347 315 320 342 336 328 344 347 335 338 353 13 29 30 18 32 29 38 42 46 36
222 214 183 201 201 209 244 244 217 252 270 275 280 277 272 270 271 272 269 263 258 253 245 248 255 258 272 279 286 284 292 305 308 325 328 333 330 333 335 328 324 317 324 284 17 40 31 35 25 40 37 37 42 47
205 222 207 196 197 224 259 265 246 257 278 276 272 274 270 269 272 269 262 259 257 249 246 248 246 252 256 264 274 284 287 287 294 298 303 300 319 322 312 304 286 297 325 345 293 46 41 40 42 30 50 47 54 51
218 217 229 199 215 241 249 238 246 270 279 271 279 276 270 267 267 267 263 259 259 253 250 252 257 258 253 249 249 255 261 268 269 269 274 275 282 289 290 278 260 297 310 317 4 46 64 58 48 44 59 63 43 52
184 187 206 212 221 239 257 239 241 241 245 277 290 276 265 272 276 273 264 256 257 257 256 258 259 256 254 259 262 257 257 260 269 263 259 255 258 265 259 256 239 242 238 266 17 80 63 74 98 68 51 64 67 57
213 199 221 223 211 249 242 215 223 255 269 261 267 275 276 280 280 274 269 267 265 266 264 255 253 256 251 239 248 252 249 240 246 248 245 243 248 240 234 232 237 234 245 227 157 73 34 102 341 70 106 84 75 67
194 218 206 233 230 235 244 244 238 242 254 263 264 269 273 277 272 269 269 269 273 280 281 145 125 256 282 270 271 260 258 236 234 230 231 227 230 236 205 207 244 232 224 186 171 155 138 95 75 23 28 61 116 105
216 210 204 218 219 224 226 264 265 266 265 264 260 267 278 280 273 273 266 336 29 39 61 38 318 303 266 263 269 250 253 229 213 221 220 211 213 219 218 204 222 223 214 202 184 177 174 173 175 193 207 114 1 207
237 235 211 232 242 236 253 260 277 280 282 282 273 279 291 282 259 240 341 11 344 305 304 306 290 278 269 263 256 253 256 226 195 204 201 203 210 209 227 203 191 206 196 182 190 193 189 191 200 207 224 248 234 345
237 266 262 260 254 255 254 263 274 277 287 322 338 300 254 254 280 317 300 301 295 297 297 291 268 251 248 227 229 248 214 178 181 196 206 206 198 233 217 176 213 170 154 155 168 184 189 198 201 217 227 237 250 243
237 251 266 263 258 221 223 226 240 240 254 288 254 237 240 247 271 284 290 300 302 299 295 277 234 211 199 212 234 248 192 176 183 193 206 201 199 197 213 180 179 168 170 161 198 202 133 145 152 148 205 226 244 266
253 245 251 265 251 248 246 240 260 266 261 252 258 264 268 275 288 305 320 337 324 248 174 154 171 184 194 207 214 162 170 188 199 203 196 190 195 187 173 170 155 166 165 163 171 173 185 204 235 235 254 282 265 257
244 217 249 238 261 264 262 263 263 269 271 269 268 258 270 287 319 16 25 31 115 112 150 177 178 188 187 177 188 166 160 184 195 178 64 192 237 171 164 158 162 153 152 151 146 170 172 154 234 243 238 217 240 262
208 204 197 216 254 274 246 220 246 266 288 289 311 352 327 354 10 16 32 46 57 61 64 76 86 101 111 104 102 116 132 123 125 123 139 132 125 125 128 135 137 140 143 149 156 220 274 295 268 197 193 209 235 245
207 212 221 240 217 221 215 209 223 255 162 51 48 54 53 46 27 10 33 44 47 55 70 68 90 99 101 99 101 104 114 119 125 133 138 138 140 130 123 130 136 134 139 138 122 111 113 106 86 146 175 196 196 189